This is the latest recevied weather packets stored in our database for station/object SV9TNF-52. If no packets are shown the sender has not sent any weather packets the latest 10 day(s).
| Time | Temp. | Humidity | Pressure | Rain* | Wind** | Luminosity | Snow |
|---|---|---|---|---|---|---|---|
| 1788091039 | 29.44° C | 56% | 1021.7 hPa | 0 mm | 8.49 m/s, 348° | - | - |
| 1788090739 | 28.89° C | 56% | 1021.7 hPa | 0 mm | 8.05 m/s, 4° | - | - |
| 1788090438 | 29.44° C | 53% | 1021.7 hPa | 0 mm | 11.18 m/s, 10° | - | - |
| 1788090139 | 30.56° C | 50% | 1021.7 hPa | 0 mm | 6.26 m/s, 8° | - | - |
| 1788089838 | 31.67° C | 48% | 1021.7 hPa | 0 mm | 1.79 m/s, 156° | - | - |
| 1788089538 | 30.56° C | 48% | 1021.7 hPa | 0 mm | 5.81 m/s, 356° | - | - |
| 1788089252 | 30.56° C | 49% | 1021.7 hPa | 0 mm | 4.02 m/s, 68° | - | - |
| 1788088938 | 30.56° C | 48% | 1021 hPa | 0 mm | 3.13 m/s, 72° | - | - |
| 1788088638 | 31.11° C | 47% | 1021 hPa | 0 mm | 4.92 m/s, 359° | - | - |
| 1788088338 | 30.56° C | 47% | 1021 hPa | 0 mm | 2.68 m/s, 113° | - | - |
| 1788088038 | 30.56° C | 48% | 1021 hPa | 0 mm | 3.13 m/s, 107° | - | - |
| 1788087738 | 30.56° C | 48% | 1021 hPa | 0 mm | 0.89 m/s, 80° | - | - |
| 1788087438 | 30.56° C | 51% | 1021.7 hPa | 0 mm | 1.79 m/s, 96° | - | - |
| 1788087137 | 31.11° C | 48% | 1021.7 hPa | 0 mm | 4.47 m/s, 358° | - | - |
| 1788086838 | 30.56° C | 50% | 1021.7 hPa | 0 mm | 4.47 m/s, 80° | - | - |
| 1788086537 | 32.22° C | 47% | 1021.7 hPa | 0 mm | 2.68 m/s, 313° | - | - |
| 1788086237 | 31.67° C | 48% | 1021.7 hPa | 0 mm | 4.92 m/s, 332° | - | - |
| 1788085937 | 30° C | 52% | 1021.7 hPa | 0 mm | 3.13 m/s, 8° | - | - |
| 1788085637 | 30.56° C | 49% | 1021.7 hPa | 0 mm | 11.18 m/s, 4° | - | - |
| 1788085337 | 31.11° C | 48% | 1021.7 hPa | 0 mm | 1.79 m/s, 84° | - | - |
| 1788085036 | 31.67° C | 47% | 1021.7 hPa | 0 mm | 2.68 m/s, 281° | - | - |
| 1788084737 | 30.56° C | 48% | 1021.7 hPa | 0 mm | 4.92 m/s, 299° | - | - |
| 1788084436 | 30.56° C | 49% | 1021.7 hPa | 0 mm | 4.92 m/s, 288° | - | - |
| 1788084136 | 31.11° C | 49% | 1021.7 hPa | 0 mm | 3.13 m/s, 302° | - | - |
| 1788083836 | 31.67° C | 47% | 1021.7 hPa | 0 mm | 2.68 m/s, 21° | - | - |
* Rain latest hour (hover to see other rain measurements)
** Current wind speed in m/s (hover to see current wind gust speed)